Doha, Qatar

8:55 AM +03 on May 27, 2018 (GMT +0300)
Doha International

Weather History for OTBD - July, 2012

Change the Weather History Date:

Sunday, July 8, 2012

  Actual Average Record
Temperature  
Mean Temperature 98 °F -  
Max Temperature 106 °F 106 °F 114 °F (2000)
Min Temperature 91 °F 84 °F 86 °F (2000)
Cooling Degree Days 34    
Growing Degree Days 48 (Base 50)    
Moisture  
Dew Point 59 °F    
Average Humidity 27    
Maximum Humidity 44    
Minimum Humidity 15    
Precipitation  
Precipitation 0.00 in 0.00 in - ()
Sea Level Pressure  
Sea Level Pressure 29.37 in    
Wind  
Wind Speed 10 mph ()    
Max Wind Speed 22 mph    
Max Gust Speed 28 mph    
Visibility 2.6 miles    
Events      
Averages and records for this station are not official NWS values.
T = Trace of Precipitation, MM = Missing Value Source: Averaged Metar Reports

Daily Weather History Graph

Daily Weather History Graph

Search for Another Location

Airport or City:

Astronomy

Jul. 08, 2012 Rise Set
Actual Time 4:49 AM +03 6:27 PM +03
Civil Twilight 4:24 AM +03 6:53 PM +03
Nautical Twilight 3:53 AM +03 7:23 PM +03
Astronomical Twilight 3:21 AM +03 7:56 PM +03
Moon 9:42 PM +03 (7/8) 9:17 AM +03 (7/8)
Length of Visible Light 14h 29m
Length of Day
13h 37m
Waning Gibbous, 76% of the Moon is Illuminated
Jul 8
Waning Gibbous
Jul 11
Last Quarter
Jul 19
New
Jul 26
First Quarter
Aug 2
Full

Hourly Weather History & Observations

Time (+03) Temp. Heat Index Dew Point Humidity Pressure Visibility Wind Dir Wind Speed Gust Speed Precip Events Conditions
12:00 AM 93.2 °F 91.9 °F 57.2 °F 30% 29.36 in 2.8 mi West 3.5 mph - N/A   Unknown
12:30 AM 93.2 °F 92.6 °F 59.0 °F 32% 29.33 in 2.8 mi WSW 5.8 mph - N/A   Unknown
1:00 AM 93.2 °F 91.9 °F 57.2 °F 30% 29.33 in 2.8 mi West 6.9 mph - N/A   Unknown
2:00 AM 93.2 °F 90.8 °F 53.6 °F 26% 29.33 in 2.8 mi West 5.8 mph - N/A   Unknown
2:30 AM 93.2 °F 91.3 °F 55.4 °F 28% 29.33 in 2.8 mi West 5.8 mph - N/A   Unknown
3:00 AM 93 °F - 57 °F 20% 29.35 in 2 mi West 4.6 mph - -   Widespread Dust
3:00 AM 93.2 °F 91.9 °F 57.2 °F 30% 29.33 in 2.5 mi West 4.6 mph - N/A   Unknown
3:30 AM 93.2 °F 91.3 °F 55.4 °F 28% 29.33 in 2.5 mi WNW 4.6 mph - N/A   Unknown
4:00 AM 95.0 °F 92.7 °F 53.6 °F 25% 29.36 in 1.9 mi WNW 9.2 mph - N/A   Unknown
4:30 AM 95.0 °F 93.0 °F 55.4 °F 26% 29.36 in 1.9 mi NW 9.2 mph - N/A   Unknown
5:00 AM 95.0 °F 93.7 °F 57.2 °F 28% 29.36 in 1.6 mi NW 10.4 mph - N/A   Unknown
5:30 AM 93.2 °F 93.3 °F 60.8 °F 34% 29.36 in 1.6 mi NW 11.5 mph - N/A   Unknown
6:00 AM 93.2 °F 94.1 °F 62.6 °F 36% 29.36 in 1.2 mi NW 10.4 mph - N/A   Unknown
6:30 AM 93.2 °F 94.9 °F 64.4 °F 38% 29.36 in 1.2 mi NW 10.4 mph - N/A   Unknown
7:00 AM 95.0 °F 96.0 °F 62.6 °F 34% 29.36 in 1.2 mi NW 11.5 mph - N/A   Unknown
8:00 AM 98.6 °F 97.6 °F 57.2 °F 25% 29.39 in 1.9 mi NNW 17.3 mph - N/A   Unknown
8:30 AM 98.6 °F 97.6 °F 57.2 °F 25% 29.39 in 1.9 mi NNW 15.0 mph 27.6 mph N/A   Unknown
9:00 AM 101 °F - 58 °F 15% 29.39 in 2 mi NNW 16.1 mph - -   Widespread Dust
9:00 AM 100.4 °F 99.7 °F 57.2 °F 24% 29.39 in 2.2 mi NNW 16.1 mph - N/A   Unknown
9:30 AM 102.2 °F 101.4 °F 57.2 °F 22% 29.39 in 2.5 mi NNW 13.8 mph - N/A   Unknown
10:00 AM 105.8 °F - 51.8 °F 17% - 2.5 mi North 17.3 mph - N/A   Unknown
10:30 AM 105.8 °F 104.9 °F 55.4 °F 19% 29.39 in 2.5 mi North 15.0 mph - N/A   Unknown
11:00 AM 105.8 °F 104.3 °F 53.6 °F 18% 29.39 in 2.8 mi North 17.3 mph - N/A   Unknown
11:30 AM 105.8 °F 105.5 °F 57.2 °F 20% 29.39 in 2.8 mi North 18.4 mph - N/A   Unknown
12:00 PM 104.0 °F 102.9 °F 55.4 °F 20% 29.39 in 2.5 mi North 17.3 mph - N/A   Unknown
12:30 PM 105.8 °F 106.8 °F 59.0 °F 22% 29.39 in 2.5 mi North 17.3 mph - N/A   Unknown
1:00 PM 105.8 °F 107.5 °F 60.8 °F 23% 29.39 in 2.5 mi North 17.3 mph - N/A   Unknown
1:30 PM 104.0 °F 103.4 °F 57.2 °F 21% 29.36 in 2.5 mi North 21.9 mph - N/A   Widespread Dust
2:00 PM 104.0 °F 103.4 °F 57.2 °F 21% 29.36 in 2.5 mi North 20.7 mph - N/A   Widespread Dust
2:30 PM 102.2 °F 104.2 °F 62.6 °F 27% 29.36 in 2.8 mi North 18.4 mph - N/A   Unknown
3:00 PM 101 °F - 64 °F 21% 29.37 in 3 mi North 16.1 mph - -   Widespread Dust
3:00 PM 100.4 °F 103.6 °F 64.4 °F 31% 29.36 in 2.8 mi North 16.1 mph - N/A   Unknown
3:30 PM 100.4 °F 103.6 °F 64.4 °F 31% 29.36 in 2.8 mi North 16.1 mph - N/A   Unknown
4:00 PM 98.6 °F 102.8 °F 66.2 °F 35% 29.36 in 2.8 mi NNE 15.0 mph - N/A   Unknown
4:30 PM 96.8 °F 103.1 °F 69.8 °F 41% 29.36 in 2.5 mi North 15.0 mph - N/A   Unknown
5:00 PM 96.8 °F 105.1 °F 71.6 °F 44% 29.36 in 2.8 mi North 13.8 mph - N/A   Unknown
5:30 PM 96.8 °F 103.1 °F 69.8 °F 41% 29.36 in 2.8 mi North 11.5 mph - N/A   Unknown
6:00 PM 96.8 °F 101.8 °F 68.0 °F 39% 29.36 in 3.1 mi North 10.4 mph - N/A   Unknown
6:30 PM 95.0 °F 99.5 °F 68.0 °F 41% 29.36 in 3.1 mi North 10.4 mph - N/A   Unknown
7:00 PM 98.6 °F - 50.0 °F 19% 29.39 in 3.1 mi NNW 15.0 mph - N/A   Unknown
7:30 PM 96.8 °F 95.8 °F 57.2 °F 27% 29.39 in 3.1 mi NNW 12.7 mph - N/A   Unknown
8:00 PM 95.0 °F 93.7 °F 57.2 °F 28% 29.39 in 3.1 mi NNW 11.5 mph - N/A   Unknown
8:30 PM 95.0 °F 93.7 °F 57.2 °F 28% 29.39 in 3.1 mi NNW 10.4 mph - N/A   Unknown
9:00 PM 94 °F - 55 °F 18% 29.41 in 3 mi North 10.4 mph - -   Widespread Dust
9:00 PM 95.0 °F 93.0 °F 55.4 °F 26% 29.39 in 3.1 mi North 10.4 mph - N/A   Unknown
9:30 PM 95.0 °F 92.7 °F 53.6 °F 25% 29.42 in 3.1 mi NNW 9.2 mph - N/A   Unknown
10:00 PM 93.2 °F 90.8 °F 53.6 °F 26% 29.39 in 3.1 mi NNW 9.2 mph - N/A   Unknown
10:30 PM 93.2 °F 91.3 °F 55.4 °F 28% 29.39 in 3.1 mi NNW 4.6 mph - N/A   Unknown
11:00 PM 93.2 °F 91.3 °F 55.4 °F 28% 29.39 in 3.7 mi North 3.5 mph - N/A   Unknown
11:30 PM 93.2 °F 91.3 °F 55.4 °F 28% 29.39 in 3.7 mi NW 3.5 mph - N/A   Unknown